Temperature
18 18 18 17 17 17 17 17 17 17 17 17 17 17 17 17 17 17 17 17 17 17 17 17 17 17 17 17 17 17 17 17 16 17 17 17 16 16 16 16 16 16 16
18 18 18 17 17 17 17 17 17 17 17 17 17 17 17 17 17 17 17 17 17 17 17 16 16 17 17 17 17 17 17 16 16 16 16 16 16 16 16 16 15 15 15
18 18 18 17 17 17 17 17 17 17 17 16 17 16 17 17 17 17 16 16 16 16 16 16 16 16 16 16 16 16 16 16 16 16 16 16 16 16 15 15 15 15 15
18 17 17 17 17 17 17 17 17 17 16 16 16 16 16 16 16 16 16 16 16 16 16 16 16 16 16 16 16 16 16 16 16 15 15 15 15 15 15 15 15 15 15
17 17 17 17 17 17 17 17 17 16 16 16 16 16 16 16 16 16 16 16 16 16 16 16 16 16 16 16 15 15 15 15 15 15 15 15 15 14 14 14 14 14 14
17 17 17 17 17 16 16 16 16 16 16 16 16 16 16 16 16 16 16 15 15 15 15 15 15 15 15 15 15 15 15 15 15 15 15 14 14 14 14 14 14 14 14
17 17 16 16 16 16 16 16 16 16 16 16 15 15 15 15 15 15 15 15 15 15 15 15 15 15 15 15 15 15 15 15 15 15 14 14 14 14 14 14 14 14 14
17 16 16 16 16 16 16 16 16 15 15 15 15 15 15 15 15 15 15 15 15 15 15 15 15 15 15 15 15 15 15 15 15 14 14 14 14 14 14 14 14 13 13
16 16 16 16 16 16 15 15 15 15 15 15 15 15 15 15 15 15 15 15 14 15 15 15 15 14 15 15 15 15 15 15 15 14 14 14 14 14 14 14 13 13 13
16 16 15 15 15 15 15 15 15 15 15 15 14 14 14 14 15 14 14 14 14 14 14 14 14 14 14 14 14 14 14 14 14 14 14 14 14 14 14 13 13 13 13
16 15 15 15 15 15 15 14 14 14 14 14 14 14 14 14 14 14 14 14 14 14 14 14 14 14 14 14 14 14 14 14 14 14 14 14 13 13 13 13 13 13 13
15 15 15 14 14 14 14 14 14 14 14 14 14 14 14 14 14 14 14 14 14 13 13 14 14 14 14 14 14 14 14 14 13 13 13 13 13 13 13 13 13 13 13
15 15 14 14 14 14 14 14 14 14 14 13 14 14 14 14 14 14 14 14 13 13 13 13 13 13 13 13 13 13 13 13 13 13 13 13 13 13 13 13 13 13 13
14 14 14 14 14 14 14 14 14 14 14 13 14 14 14 14 13 13 13 13 13 13 13 13 13 13 13 13 13 13 13 13 12 12 12 12 12 12 12 12 12 12 12
14 14 14 14 14 14 14 13 13 14 14 14 14 14 13 13 13 13 13 13 13 13 13 13 13 13 13 12 12 12 12 12 12 12 12 12 12 12 12 12 12 12 12
14 13 13 13 13 13 13 13 13 13 14 14 14 13 13 13 13 13 13 13 13 13 13 13 13 12 12 12 12 12 12 12 12 12 11 11 11 11 11 11 11 11 11
13 13 13 13 13 13 13 13 13 13 13 13 13 13 13 13 13 13 13 13 13 12 12 12 12 12 12 12 12 11 11 11 11 11 11 11 11 11 11 11 11 11 11
13 13 13 13 13 13 13 13 13 13 13 13 13 13 13 13 13 13 12 12 12 12 12 12 12 12 11 11 11 11 11 11 11 11 11 11 11 11 10 10 10 10 10
13 13 13 13 13 13 13 13 13 13 13 13 13 13 13 13 12 12 12 12 12 11 11 11 11 11 11 11 11 11 11 11 11 11 10 10 10 10 10 10 10 10 10
13 13 13 13 13 13 13 13 13 13 13 13 12 12 12 12 12 12 12 12 12 11 11 11 11 11 11 11 10 10 10 10 10 10 10 10 10 10 10 10 10 9 9
13 13 13 13 13 13 13 13 13 13 12 12 12 12 12 12 12 12 12 11 11 11 11 11 11 11 10 10 10 10 10 10 10 10 10 10 10 9 9 9 9 9 9
13 13 13 13 13 13 13 13 12 12 12 12 12 12 12 12 12 12 12 11 11 11 11 11 11 10 10 10 10 10 10 10 10 10 10 9 9 9 9 9 9 9 9
13 13 13 13 12 12 12 12 12 12 12 12 12 12 11 11 11 11 11 11 11 11 11 10 10 10 10 10 9 9 9 9 9 9 9 9 9 9 9 9 9 9 9
13 13 13 12 12 12 12 12 12 12 12 12 12 11 11 11 11 11 11 11 11 11 10 10 10 10 10 10 9 9 9 9 9 9 9 9 9 9 9 8 8 9 8
13 13 13 12 12 12 12 12 12 12 11 11 11 11 11 11 11 11 11 10 10 10 10 10 10 10 10 9 9 9 9 9 9 9 9 9 9 9 8 8 8 8 8
13 12 12 12 12 12 11 11 11 11 11 11 11 11 11 11 11 10 10 10 10 10 10 10 10 9 9 9 9 9 9 9 9 9 9 9 9 8 8 8 8 8 8
Wind_Speed
5 4 3 4 4 4 3 2 2 2 1 2 2 2 2 2 2 2 3 2 2 3 3 3 3 3 3 3 2 1 1 2 3 2 1 0 1 1 2 4 5 5 6
4 4 4 3 3 3 3 2 2 2 2 2 2 2 3 3 2 3 4 3 3 3 3 3 3 3 3 3 2 2 2 2 2 3 2 1 1 1 2 3 2 3 4
4 4 4 3 3 3 2 2 1 1 2 2 2 3 3 3 3 3 4 4 4 4 3 4 4 3 3 3 2 3 3 3 2 2 2 1 1 1 1 2 2 1 3
3 3 3 3 2 2 2 2 2 2 3 2 3 3 3 3 3 3 4 4 4 4 4 4 4 4 3 3 4 3 3 3 3 3 2 2 1 1 1 1 1 1 1
1 3 2 2 1 2 2 2 2 3 3 3 3 3 3 3 3 3 4 5 4 4 4 4 4 4 4 4 4 3 3 4 3 3 2 2 2 1 2 2 2 1 1
1 1 1 1 2 2 1 1 2 2 2 2 3 3 3 3 3 4 4 5 4 4 4 4 4 3 3 4 4 4 5 4 4 3 3 3 3 3 2 2 2 2 2
1 0 1 1 2 2 2 1 2 2 2 2 2 2 2 2 3 3 4 4 4 4 4 4 5 4 2 2 2 3 4 6 6 5 4 4 3 3 3 3 3 3 4
0 1 0 1 1 2 2 2 2 2 2 2 2 2 2 3 3 3 4 4 4 4 3 3 3 2 3 3 3 3 3 3 4 4 4 4 3 2 3 3 4 3 2
0 1 1 1 2 2 2 2 2 2 2 2 2 2 2 2 2 2 2 3 3 2 2 2 1 1 2 2 2 3 3 2 2 2 4 4 4 4 3 2 3 2 3
1 1 1 2 2 2 1 2 2 1 2 2 2 2 2 2 1 0 1 2 2 2 1 1 1 1 1 1 2 2 2 3 2 2 2 2 3 3 4 5 4 3 3
1 1 1 1 2 1 1 1 1 2 2 2 2 2 2 2 2 2 1 1 2 2 2 1 1 1 1 3 3 2 3 3 2 2 2 1 1 1 2 3 3 4 3
1 1 1 1 2 1 1 1 1 1 2 3 3 3 2 2 2 2 2 2 3 2 2 2 1 2 2 4 3 3 4 2 1 1 1 0 0 1 1 2 2 2 3
2 1 1 1 2 1 1 1 1 1 2 2 3 3 2 1 1 2 3 3 4 2 2 2 3 3 3 3 3 3 2 1 1 1 1 1 1 1 1 1 1 1 1
2 1 1 0 1 0 1 1 1 2 2 2 2 1 1 0 1 0 2 3 3 3 3 2 3 4 4 3 2 2 1 1 1 1 1 1 1 1 1 1 1 1 1
1 1 1 1 1 1 0 1 1 1 1 1 1 1 1 1 1 1 1 2 2 2 2 2 2 1 1 1 1 0 0 0 1 1 1 1 1 2 2 1 1 1 1
1 1 1 1 1 1 0 1 4 1 2 2 0 1 0 1 1 1 1 2 2 1 0 2 2 1 1 1 1 1 1 1 1 1 2 2 2 2 1 1 1 1 2
1 1 2 2 2 2 1 1 0 1 2 3 2 1 1 0 0 1 1 1 2 1 1 2 2 2 1 1 1 1 1 1 1 2 2 2 2 2 1 1 1 1 2
2 2 3 2 2 2 1 1 1 1 0 1 1 2 2 1 2 2 1 1 1 1 2 2 2 1 1 1 1 1 1 1 1 2 2 1 1 1 1 1 1 2 2
2 2 2 2 1 1 1 1 1 1 0 1 1 1 1 1 1 1 1 0 1 2 1 1 1 1 1 1 1 1 1 1 1 1 2 1 1 1 1 2 2 2 2
2 2 3 2 2 1 1 1 0 0 0 0 0 1 1 1 0 0 1 1 1 2 1 1 1 1 2 2 1 1 1 1 1 1 1 1 1 1 1 2 1 1 1
2 2 2 2 1 1 1 1 0 1 1 1 1 1 2 1 0 0 1 1 1 1 1 1 1 1 1 1 1 1 1 1 0 0 0 1 1 1 1 1 1 1 1
2 2 2 2 2 1 1 1 0 0 1 0 1 2 2 1 1 1 1 1 0 0 0 1 1 1 2 1 1 1 1 1 1 1 1 1 1 2 2 1 1 1 1
2 2 2 1 2 2 2 2 2 1 1 1 1 1 1 1 1 0 1 1 1 1 1 1 1 1 1 1 1 1 1 1 1 1 1 1 1 2 2 1 1 1 0
2 2 1 1 2 3 2 2 2 2 1 1 1 1 1 1 1 1 1 1 1 0 1 1 1 1 1 1 1 2 3 3 2 2 2 2 2 2 2 1 1 2 1
2 2 1 1 1 2 2 2 2 2 2 2 2 1 1 1 1 1 1 1 1 1 1 1 1 1 1 1 3 3 3 5 4 3 2 2 2 1 2 2 2 2 2
2 1 1 1 1 2 2 1 1 2 2 2 1 1 1 1 1 2 2 1 1 1 1 1 1 2 2 2 3 4 4 3 3 4 3 2 2 2 2 2 3 3 3
Wind_Direction
185 188 194 199 207 219 235 241 253 269 265 258 271 279 274 262 255 261 269 263 264 276 281 273 263 264 274 283 275 263 246 228 233 268 267 38 117 132 161 180 191 182 191
180 183 193 201 206 219 229 234 241 261 261 256 253 260 266 268 260 257 264 267 259 264 268 271 266 260 262 264 269 252 241 235 210 243 264 241 235 167 200 203 204 197 183
187 193 197 209 213 228 237 230 227 243 259 264 267 265 267 272 269 270 272 274 271 267 264 257 263 262 260 260 253 247 250 249 225 229 250 244 229 213 202 215 212 208 220
184 199 204 217 223 231 247 232 229 232 239 255 261 266 269 271 273 280 284 274 271 273 272 264 262 258 254 252 243 234 243 245 233 228 235 222 206 215 190 221 226 220 235
197 206 206 217 224 239 241 237 236 241 246 253 261 263 266 261 269 286 285 277 279 279 278 276 264 258 250 246 248 231 236 237 236 231 237 236 227 211 229 234 237 252 244
160 235 206 207 218 233 236 228 242 246 262 263 259 260 268 273 293 289 284 286 279 275 277 282 267 261 248 246 243 234 231 230 232 233 237 243 243 231 235 240 227 239 260
139 231 203 209 216 236 248 234 247 245 250 261 262 256 257 272 294 295 291 278 274 269 269 274 276 278 277 278 255 232 232 227 225 228 233 242 247 235 223 236 240 239 247
163 269 287 268 252 250 247 239 241 242 249 253 256 266 267 278 293 300 297 268 264 266 272 270 277 303 295 309 274 256 251 254 245 231 232 242 242 222 209 223 231 252 261
343 323 314 275 262 271 254 245 244 242 252 248 245 260 270 279 287 290 288 272 264 268 261 275 265 261 321 323 286 267 270 275 287 253 237 234 233 229 218 225 236 242 269
354 334 333 320 293 271 262 256 247 236 234 243 249 250 258 262 220 242 276 264 272 274 254 232 254 278 302 313 298 272 264 268 280 282 254 230 227 223 216 219 231 237 255
353 359 352 342 303 284 277 269 236 229 228 233 253 256 246 247 184 181 228 258 281 287 281 276 281 284 326 320 310 286 255 257 261 256 241 219 237 252 233 229 231 229 238
25 14 347 331 304 322 342 297 245 225 233 234 241 251 243 221 176 189 203 238 271 294 292 296 263 246 280 296 293 282 279 272 265 282 278 284 280 286 283 273 254 240 225
19 12 360 358 345 357 328 289 271 237 238 244 243 242 248 213 165 180 214 250 280 281 290 301 288 261 256 262 256 259 261 261 260 265 267 282 285 278 270 280 328 316 298
23 2 336 316 271 318 288 268 267 258 252 255 258 272 293 29 75 253 257 263 274 285 299 303 278 262 258 268 261 247 212 224 248 265 275 288 306 304 293 286 285 309 324
7 331 295 303 315 32 17 332 308 344 344 278 291 302 330 312 336 350 237 272 285 305 302 292 281 270 226 240 242 234 247 269 280 286 276 271 276 277 272 273 264 280 279
332 318 283 269 281 238 230 11 26 34 81 72 54 227 1 130 135 82 263 289 299 332 129 251 256 246 244 258 293 291 261 255 269 261 256 256 261 263 262 281 279 271 267
308 295 275 259 253 244 225 228 302 2 40 39 33 75 98 145 295 296 302 302 281 235 203 246 254 250 246 245 263 283 292 282 258 254 257 262 269 271 264 270 273 280 278
265 266 273 257 244 255 250 226 231 254 325 8 7 124 141 168 250 266 331 33 298 233 239 252 263 263 262 262 287 300 310 300 278 278 276 273 277 269 269 269 267 278 284
273 260 271 262 254 256 253 240 233 222 204 65 60 64 133 159 290 292 123 195 279 296 283 265 284 317 342 8 359 346 319 296 286 267 275 278 285 287 274 265 259 261 266
278 266 264 258 243 249 246 254 271 326 12 85 65 35 65 97 53 139 157 242 260 285 307 343 30 38 35 40 32 355 316 307 307 289 311 322 311 302 295 284 268 267 261
305 314 290 260 243 254 295 289 241 261 265 238 168 127 154 206 259 287 185 210 240 281 340 4 25 50 56 42 18 341 317 307 325 348 6 330 323 304 293 292 278 273 296
326 325 334 346 4 5 317 313 324 341 321 358 89 116 162 228 282 313 333 350 337 58 42 5 22 37 39 39 25 342 325 311 348 18 19 308 291 289 288 276 251 274 266
298 300 314 358 351 306 293 324 331 339 353 17 54 110 177 267 278 318 7 1 356 35 71 80 68 59 42 26 42 40 338 335 355 2 318 281 281 289 286 285 298 288 266
282 279 308 3 354 337 338 344 338 340 357 345 317 306 271 264 283 282 287 287 276 82 71 73 108 105 72 43 74 67 47 28 7 343 317 295 283 284 298 305 283 291 294
271 283 300 322 304 295 308 330 332 340 344 336 329 320 318 320 299 251 246 250 227 165 153 168 160 112 102 62 77 73 60 43 24 347 301 288 281 287 291 297 299 295 289
285 293 325 331 307 298 298 297 302 316 318 316 314 310 317 329 341 330 298 282 263 201 171 132 98 89 76 76 85 81 73 51 19 348 319 293 298 301 300 291 296 298 294
Height
1508 1509 1510 1510 1510 1511 1511 1511 1512 1512 1512 1512 1512 1513 1513 1513 1513 1513 1513 1513 1514 1514 1514 1514 1514 1514 1515 1515 1515 1515 1515 1516 1515 1516 1516 1517 1516 1516 1516 1515 1514 1514 1513
1506 1507 1507 1508 1508 1508 1508 1509 1509 1509 1509 1509 1509 1509 1510 1510 1510 1510 1510 1510 1510 1510 1510 1511 1510 1511 1511 1511 1512 1512 1512 1513 1513 1513 1513 1514 1514 1514 1514 1513 1513 1512 1512
1504 1504 1505 1505 1505 1505 1506 1506 1506 1506 1506 1506 1506 1506 1507 1507 1507 1507 1507 1507 1507 1507 1507 1506 1506 1507 1507 1508 1508 1508 1509 1509 1510 1510 1510 1511 1511 1511 1511 1511 1511 1510 1510
1502 1502 1502 1503 1503 1503 1503 1503 1503 1503 1503 1503 1503 1503 1503 1504 1504 1503 1503 1503 1503 1503 1503 1503 1503 1503 1504 1504 1505 1505 1505 1506 1506 1507 1508 1508 1508 1508 1508 1508 1508 1508 1508
1500 1500 1500 1500 1500 1500 1500 1500 1500 1500 1500 1500 1500 1500 1500 1500 1500 1500 1499 1499 1499 1499 1499 1499 1500 1500 1500 1501 1501 1501 1502 1502 1503 1504 1504 1505 1505 1505 1505 1505 1505 1505 1505
1497 1498 1498 1498 1497 1497 1498 1497 1497 1497 1497 1497 1497 1496 1496 1496 1496 1496 1496 1496 1496 1496 1495 1495 1496 1497 1497 1497 1497 1498 1498 1499 1500 1500 1501 1501 1501 1501 1502 1502 1502 1502 1501
1495 1495 1495 1495 1495 1495 1495 1495 1494 1494 1494 1494 1494 1493 1493 1493 1493 1493 1493 1492 1492 1492 1492 1492 1493 1493 1493 1493 1493 1494 1495 1496 1497 1497 1498 1497 1498 1498 1499 1499 1499 1499 1498
1493 1493 1492 1492 1492 1492 1492 1491 1492 1492 1491 1491 1491 1491 1490 1490 1490 1490 1489 1489 1489 1489 1489 1489 1489 1489 1490 1490 1490 1490 1491 1492 1493 1494 1494 1494 1495 1495 1495 1496 1496 1496 1496
1490 1490 1490 1490 1489 1489 1489 1489 1489 1489 1489 1489 1488 1488 1488 1487 1487 1487 1487 1487 1487 1486 1486 1486 1486 1486 1487 1487 1487 1487 1487 1488 1489 1490 1490 1491 1491 1492 1492 1493 1492 1492 1492
1488 1488 1488 1487 1487 1487 1486 1486 1486 1486 1486 1486 1486 1486 1486 1485 1485 1484 1485 1485 1485 1484 1484 1484 1484 1484 1484 1484 1484 1484 1483 1484 1485 1486 1487 1487 1488 1489 1489 1490 1489 1489 1489
1487 1486 1486 1485 1485 1485 1484 1484 1484 1484 1484 1484 1484 1484 1484 1483 1483 1483 1483 1483 1482 1483 1482 1482 1482 1482 1481 1482 1482 1481 1480 1482 1482 1483 1484 1484 1485 1485 1486 1486 1487 1487 1486
1485 1484 1484 1484 1483 1483 1483 1482 1482 1482 1481 1481 1481 1481 1481 1481 1481 1481 1481 1481 1481 1481 1480 1480 1480 1479 1479 1479 1479 1479 1479 1479 1480 1480 1481 1481 1482 1482 1482 1483 1484 1484 1484
1483 1483 1482 1482 1482 1481 1481 1481 1480 1480 1479 1479 1479 1479 1479 1479 1479 1480 1480 1480 1479 1479 1479 1478 1478 1478 1477 1477 1477 1477 1477 1477 1477 1478 1478 1478 1479 1480 1480 1480 1480 1480 1480
1482 1482 1481 1480 1480 1480 1480 1479 1478 1478 1478 1478 1477 1477 1477 1478 1477 1477 1477 1478 1477 1477 1477 1476 1476 1476 1476 1476 1476 1476 1475 1475 1475 1476 1476 1476 1477 1477 1477 1477 1477 1477 1477
1481 1480 1480 1479 1478 1478 1478 1477 1477 1477 1477 1476 1476 1476 1475 1475 1475 1476 1476 1476 1475 1475 1474 1474 1474 1474 1474 1474 1474 1474 1474 1474 1474 1473 1473 1474 1474 1475 1475 1475 1475 1475 1474
1479 1479 1479 1478 1477 1477 1477 1476 1475 1475 1475 1475 1475 1475 1474 1474 1473 1473 1473 1473 1473 1473 1473 1472 1472 1472 1472 1472 1472 1472 1472 1472 1472 1471 1472 1472 1472 1472 1472 1472 1472 1472 1472
1478 1477 1477 1476 1476 1475 1475 1474 1473 1474 1474 1473 1473 1473 1472 1471 1471 1471 1471 1471 1471 1471 1470 1470 1470 1470 1470 1471 1470 1470 1470 1470 1470 1470 1470 1470 1470 1470 1470 1470 1470 1470 1470
1476 1476 1475 1475 1474 1474 1474 1473 1473 1472 1472 1471 1471 1470 1470 1470 1470 1469 1469 1469 1468 1468 1468 1468 1468 1468 1468 1469 1468 1468 1468 1468 1468 1468 1468 1468 1467 1467 1467 1467 1467 1467 1467
1475 1474 1474 1473 1473 1473 1472 1472 1472 1471 1470 1470 1469 1469 1469 1468 1468 1468 1467 1467 1466 1466 1466 1466 1466 1467 1466 1466 1466 1466 1466 1466 1465 1466 1465 1465 1465 1465 1465 1465 1465 1465 1464
1473 1473 1472 1472 1471 1471 1470 1470 1470 1470 1469 1469 1468 1468 1468 1467 1467 1466 1466 1465 1465 1465 1465 1465 1465 1465 1465 1465 1464 1464 1464 1464 1464 1463 1463 1463 1463 1463 1463 1463 1462 1462 1462
1473 1472 1471 1471 1470 1470 1469 1469 1469 1469 1468 1468 1468 1467 1467 1467 1466 1466 1465 1465 1464 1464 1464 1464 1464 1463 1463 1463 1462 1462 1462 1462 1461 1461 1461 1461 1461 1461 1461 1460 1460 1460 1460
1471 1471 1470 1470 1469 1469 1469 1468 1467 1468 1468 1467 1467 1466 1466 1466 1465 1465 1465 1465 1464 1464 1463 1463 1463 1462 1462 1461 1460 1460 1460 1459 1459 1459 1459 1458 1459 1459 1459 1458 1458 1458 1458
1470 1470 1470 1469 1469 1468 1467 1467 1467 1467 1466 1466 1465 1465 1465 1464 1464 1464 1464 1464 1463 1463 1462 1462 1461 1461 1461 1460 1459 1459 1458 1458 1457 1457 1457 1457 1457 1457 1457 1457 1457 1457 1457
1469 1469 1469 1468 1467 1467 1467 1466 1466 1465 1465 1465 1464 1464 1464 1463 1463 1463 1462 1462 1461 1461 1461 1460 1460 1460 1459 1459 1458 1458 1457 1456 1456 1456 1456 1456 1455 1455 1455 1455 1455 1456 1456
1468 1468 1468 1467 1467 1467 1466 1465 1464 1464 1463 1463 1463 1462 1462 1461 1461 1461 1460 1460 1459 1459 1459 1459 1459 1458 1458 1457 1457 1456 1456 1455 1455 1454 1454 1454 1454 1454 1454 1454 1454 1454 1454
1467 1466 1466 1465 1465 1465 1464 1463 1463 1462 1462 1462 1461 1460 1460 1459 1459 1458 1458 1458 1458 1457 1457 1457 1457 1457 1456 1456 1455 1455 1455 1454 1453 1453 1453 1452 1452 1452 1452 1452 1452 1452 1452